Tracking 19484 objects as of 18-Jan-2019
HD Live streaming from Space Station
objects crossing your sky now

ANIK A2 (TELESAT 2)

Track ANIK A2 (TELESAT 2) now!
ANIK A2 (TELESAT 2) is classified as:


NORAD ID: 6437
Int'l Code: 1973-023A
Perigee: 35,857.5 km
Apogee: 35,995.0 km
Inclination: 12.7 °
Period: 1,442.9 minutes
Semi major axis: 42297 km
RCS: 3.1458 m2 (large)
Launch date: April 20, 1973
Source: Canada (CA)
Launch site: AIR FORCE EASTERN TEST RANGE (AFETR)
aabbcc
Your satellite tracking list
Your tracking list is empty




NASA's NSSDC Master Catalog

Two Line Element Set (TLE):
1  6437U 73023A   19017.18434133 -.00000276  00000-0  00000+0 0  9995
2  6437  12.7244 323.3491 0016251 354.2712 179.5903  0.99800929 93299
Source of the keplerian elements: AFSPC